RYR3837 LEMH-EGCC

Flight info

Callsign RYR3837
Flight time N/A
Altitude 36000
Route MEROS N853 LUMAS DCT SOFFY DCT MRM DCT MTL DCT ETREK DCT MADOT DCT MOPEM DCT CACHI DCT AVLON DCT OKRIX DCT BRY DCT CLM DCT KOPOR DCT VESAN DCT RATUK DCT SOVAT L613 SANDY UN57 WELIN T420 ELVOS
Aircraft B738/M-SDE3FGILRWY/SB1

Departure

Time 2026-04-30 13:19
Airport Menorca Airport (LEMH)

Arrival

Time N/A
Airport Manchester Airport (EGCC)
Time Latitude Longitude Altitude Speed Heading
2026-04-30 13:06 39.86468 4.22399 285 ft 0 kts 99°
2026-04-30 13:11 39.86470 4.22383 285 ft 4 kts 94°
2026-04-30 13:12 39.86469 4.22349 292 ft 4 kts 74°
2026-04-30 13:12 39.86458 4.22320 287 ft 4 kts 35°
2026-04-30 13:12 39.86445 4.22312 287 ft 1 kts
2026-04-30 13:13 39.86443 4.22312 287 ft 0 kts
2026-04-30 13:14 39.86447 4.22313 287 ft 7 kts
2026-04-30 13:14 39.86621 4.22349 289 ft 14 kts
2026-04-30 13:15 39.86715 4.22369 292 ft 13 kts
2026-04-30 13:15 39.86893 4.22396 294 ft 13 kts 338°
2026-04-30 13:15 39.86931 4.22275 298 ft 17 kts 301°
2026-04-30 13:16 39.87058 4.22268 303 ft 23 kts
2026-04-30 13:16 39.87243 4.22306 308 ft 30 kts
2026-04-30 13:16 39.87404 4.22339 314 ft 17 kts
2026-04-30 13:17 39.87366 4.22110 310 ft 18 kts 218°
2026-04-30 13:17 39.87287 4.22075 308 ft 0 kts 189°
2026-04-30 13:18 39.86756 4.21965 304 ft 109 kts 189°
2026-04-30 13:18 39.85786 4.21765 318 ft 170 kts 189°
2026-04-30 13:19 39.84559 4.21525 933 ft 183 kts 189°
2026-04-30 13:19 39.83271 4.21264 1766 ft 190 kts 189°
2026-04-30 13:19 39.81967 4.20999 2629 ft 194 kts 188°
2026-04-30 13:19 39.80571 4.20713 3187 ft 213 kts 188°
2026-04-30 13:20 39.79028 4.20373 3426 ft 237 kts 187°
2026-04-30 13:20 39.77359 4.20067 3914 ft 243 kts 177°
2026-04-30 13:20 39.75805 4.20755 4589 ft 240 kts 139°
2026-04-30 13:20 39.74878 4.22605 4977 ft 259 kts 103°
2026-04-30 13:21 39.74868 4.24980 5709 ft 269 kts 82°
2026-04-30 13:21 39.75441 4.27321 6550 ft 276 kts 66°
2026-04-30 13:21 39.76358 4.29498 7371 ft 281 kts 60°
2026-04-30 13:22 39.78973 4.33408 8919 ft 294 kts 40°
2026-04-30 13:22 39.80668 4.34915 9709 ft 298 kts 30°
2026-04-30 13:22 39.84709 4.36706 10693 ft 328 kts
2026-04-30 13:23 39.87059 4.36845 10964 ft 346 kts 355°
2026-04-30 13:23 39.91733 4.35256 12436 ft 348 kts 330°
2026-04-30 13:24 39.95095 4.31919 13734 ft 348 kts 309°
2026-04-30 13:24 39.97921 4.26758 15077 ft 357 kts 314°
2026-04-30 13:25 40.02546 4.24355 16422 ft 374 kts 355°
2026-04-30 13:25 40.07767 4.25362 17581 ft 382 kts
2026-04-30 13:26 40.14811 4.27327 18515 ft 395 kts
2026-04-30 13:26 40.20212 4.28795 19770 ft 399 kts
2026-04-30 13:27 40.25707 4.30254 20822 ft 407 kts
2026-04-30 13:28 40.34137 4.32482 22317 ft 417 kts
2026-04-30 13:28 40.39871 4.34003 23238 ft 424 kts
2026-04-30 13:28 40.42770 4.34774 23675 ft 427 kts
2026-04-30 13:29 40.47287 4.35976 24379 ft 431 kts
2026-04-30 13:29 40.53161 4.37494 25231 ft 435 kts
2026-04-30 13:30 40.62165 4.39596 26484 ft 441 kts
2026-04-30 13:31 40.68241 4.41023 27206 ft 446 kts
2026-04-30 13:31 40.77474 4.43221 28275 ft 452 kts
2026-04-30 13:32 40.83695 4.44710 28943 ft 456 kts
2026-04-30 13:32 40.89970 4.46211 29537 ft 460 kts
2026-04-30 13:33 40.96289 4.47749 30141 ft 464 kts
2026-04-30 13:33 41.02642 4.49311 30839 ft 463 kts
2026-04-30 13:34 41.04303 4.49718 31065 ft 462 kts
2026-04-30 13:34 41.13735 4.52023 32178 ft 458 kts
2026-04-30 13:35 41.16872 4.52788 32510 ft 458 kts
2026-04-30 13:35 41.23126 4.54313 33195 ft 455 kts
2026-04-30 13:36 41.29344 4.55838 33783 ft 455 kts
2026-04-30 13:36 41.32454 4.56602 34118 ft 453 kts
2026-04-30 13:36 41.38595 4.58113 34702 ft 452 kts
2026-04-30 13:37 41.41680 4.58872 34980 ft 451 kts
2026-04-30 13:37 41.47841 4.60391 35433 ft 451 kts
2026-04-30 13:38 41.54009 4.61914 35967 ft 449 kts
2026-04-30 13:38 41.57077 4.62674 36106 ft 450 kts
2026-04-30 13:39 41.67976 4.65377 36098 ft 450 kts
2026-04-30 13:40 41.77128 4.67986 36107 ft 450 kts
2026-04-30 13:40 41.83133 4.70399 36110 ft 450 kts 10°
2026-04-30 13:41 41.89119 4.72855 36132 ft 449 kts 10°
2026-04-30 13:41 41.95113 4.75255 36147 ft 449 kts
2026-04-30 13:42 42.01113 4.77626 36142 ft 450 kts
2026-04-30 13:42 42.10151 4.81187 36131 ft 453 kts 10°
2026-04-30 13:43 42.16200 4.83581 36147 ft 454 kts 10°
2026-04-30 13:43 42.22267 4.85992 36143 ft 455 kts 10°
2026-04-30 13:44 42.27647 4.88133 36148 ft 456 kts 10°
2026-04-30 13:44 42.33739 4.90562 36146 ft 457 kts 10°
2026-04-30 13:45 42.42874 4.94213 36139 ft 456 kts 10°
2026-04-30 13:46 42.48959 4.96648 36146 ft 456 kts 11°
2026-04-30 13:46 42.55030 4.99084 36147 ft 455 kts 11°
2026-04-30 13:47 42.61088 5.01519 36146 ft 453 kts 11°
2026-04-30 13:47 42.67123 5.03949 36149 ft 452 kts 11°
2026-04-30 13:48 42.73142 5.06377 36149 ft 451 kts 11°
2026-04-30 13:48 42.79154 5.08810 36154 ft 451 kts 11°
2026-04-30 13:49 42.84501 5.10979 36155 ft 449 kts 11°
2026-04-30 13:49 42.90487 5.13409 36158 ft 448 kts 11°
2026-04-30 13:50 42.96464 5.15841 36155 ft 448 kts 11°
2026-04-30 13:50 43.05374 5.19473 36154 ft 447 kts 11°
2026-04-30 13:51 43.11346 5.21882 36160 ft 447 kts 11°
2026-04-30 13:51 43.17321 5.24299 36155 ft 448 kts 11°
2026-04-30 13:52 43.23305 5.26731 36159 ft 449 kts 12°
2026-04-30 13:52 43.29293 5.29170 36158 ft 449 kts 12°
2026-04-30 13:53 43.35316 5.31396 36144 ft 444 kts
2026-04-30 13:53 43.41361 5.31022 36154 ft 431 kts 341°
2026-04-30 13:54 43.46414 5.28805 36154 ft 427 kts 336°
2026-04-30 13:54 43.52005 5.26164 36155 ft 427 kts 337°
2026-04-30 13:55 43.57640 5.23535 36157 ft 428 kts 337°
2026-04-30 13:55 43.63289 5.20937 36159 ft 428 kts 337°
2026-04-30 13:56 43.68939 5.18346 36154 ft 428 kts 338°
2026-04-30 13:56 43.74587 5.15755 36156 ft 428 kts 337°
2026-04-30 13:57 43.80228 5.13157 36159 ft 427 kts 338°
2026-04-30 13:57 43.85871 5.10554 36156 ft 427 kts 338°
2026-04-30 13:58 43.94329 5.06641 36159 ft 427 kts 338°
2026-04-30 13:59 43.99323 5.04329 36160 ft 427 kts 338°
2026-04-30 13:59 44.04966 5.01711 36155 ft 428 kts 339°
2026-04-30 14:00 44.10618 4.99079 36158 ft 428 kts 339°
2026-04-30 14:00 44.19065 4.95132 36161 ft 430 kts 339°
2026-04-30 14:01 44.24738 4.92479 36158 ft 430 kts 339°
2026-04-30 14:01 44.30422 4.89821 36155 ft 431 kts 339°
2026-04-30 14:02 44.36111 4.87149 36159 ft 432 kts 339°
2026-04-30 14:02 44.41811 4.84468 36155 ft 433 kts 339°
2026-04-30 14:03 44.47522 4.81775 36149 ft 433 kts 339°
2026-04-30 14:03 44.53235 4.79073 36148 ft 434 kts 339°
2026-04-30 14:04 44.58472 4.77153 36156 ft 436 kts 348°
2026-04-30 14:04 44.64486 4.75890 36149 ft 437 kts 349°
2026-04-30 14:05 44.70503 4.74657 36127 ft 437 kts 349°
2026-04-30 14:05 44.76508 4.73359 36136 ft 436 kts 349°
2026-04-30 14:06 44.85502 4.71361 36134 ft 436 kts 348°
2026-04-30 14:07 44.94483 4.69354 36127 ft 435 kts 349°
2026-04-30 14:08 45.03439 4.67351 36126 ft 434 kts 349°
2026-04-30 14:08 45.11377 4.65569 36123 ft 433 kts 349°
2026-04-30 14:09 45.17658 4.64160 36135 ft 433 kts 349°
2026-04-30 14:10 45.26586 4.62123 36120 ft 433 kts 349°
2026-04-30 14:10 45.32578 4.60754 36119 ft 433 kts 349°
2026-04-30 14:11 45.38487 4.59389 36121 ft 433 kts 349°
2026-04-30 14:11 45.44447 4.58018 36119 ft 434 kts 349°
2026-04-30 14:12 45.50414 4.56641 36111 ft 435 kts 349°
2026-04-30 14:12 45.56388 4.55260 36108 ft 435 kts 349°
2026-04-30 14:13 45.62361 4.53875 36102 ft 435 kts 349°
2026-04-30 14:13 45.68342 4.52484 36099 ft 436 kts 349°
2026-04-30 14:14 45.73659 4.51248 36104 ft 435 kts 349°
2026-04-30 14:14 45.79636 4.49858 36099 ft 435 kts 349°
2026-04-30 14:15 45.85609 4.48465 36104 ft 434 kts 349°
2026-04-30 14:15 45.91575 4.47071 36101 ft 435 kts 349°
2026-04-30 14:16 45.97542 4.45676 36099 ft 434 kts 349°
2026-04-30 14:16 46.03508 4.44276 36099 ft 435 kts 350°
2026-04-30 14:17 46.09478 4.42869 36104 ft 435 kts 350°
2026-04-30 14:17 46.15446 4.41463 36104 ft 435 kts 350°
2026-04-30 14:18 46.20415 4.40292 36099 ft 436 kts 350°
2026-04-30 14:18 46.29385 4.38125 36097 ft 436 kts 348°
2026-04-30 14:19 46.36950 4.35544 36095 ft 435 kts 345°
2026-04-30 14:20 46.42820 4.33403 36101 ft 435 kts 346°
2026-04-30 14:20 46.51631 4.30268 36097 ft 435 kts 346°
2026-04-30 14:21 46.57508 4.28199 36105 ft 434 kts 346°
2026-04-30 14:22 46.66328 4.25088 36103 ft 435 kts 346°
2026-04-30 14:22 46.75147 4.21966 36108 ft 435 kts 346°
2026-04-30 14:23 46.86914 4.17780 36110 ft 435 kts 347°
2026-04-30 14:24 46.94584 4.15045 36110 ft 435 kts 347°
2026-04-30 14:25 47.06310 4.10831 36122 ft 435 kts 346°
2026-04-30 14:26 47.14819 4.06080 36122 ft 437 kts 338°
2026-04-30 14:27 47.23267 4.00903 36129 ft 439 kts 339°
2026-04-30 14:27 47.28935 3.97510 36110 ft 440 kts 339°
2026-04-30 14:28 47.37482 3.92415 36125 ft 443 kts 340°
2026-04-30 14:28 47.43193 3.88995 36123 ft 443 kts 339°
2026-04-30 14:29 47.53322 3.82914 36125 ft 444 kts 340°
2026-04-30 14:31 47.67675 3.74299 36132 ft 446 kts 340°
2026-04-30 14:31 47.76296 3.69109 36129 ft 446 kts 340°
2026-04-30 14:32 47.84902 3.63905 36128 ft 445 kts 340°
2026-04-30 14:33 47.90630 3.60432 36146 ft 444 kts 340°
2026-04-30 14:33 47.99205 3.55210 36145 ft 443 kts 340°
2026-04-30 14:34 48.03819 3.52376 36146 ft 443 kts 340°
2026-04-30 14:34 48.09516 3.48864 36144 ft 443 kts 340°
2026-04-30 14:35 48.18057 3.43583 36148 ft 443 kts 340°
2026-04-30 14:36 48.23761 3.40049 36146 ft 444 kts 340°
2026-04-30 14:36 48.29468 3.36507 36147 ft 444 kts 340°
2026-04-30 14:37 48.35176 3.32950 36139 ft 444 kts 340°
2026-04-30 14:37 48.40850 3.29406 36150 ft 445 kts 339°
2026-04-30 14:38 48.46550 3.25793 36149 ft 445 kts 339°
2026-04-30 14:38 48.52256 3.22147 36149 ft 445 kts 339°
2026-04-30 14:39 48.57263 3.18939 36136 ft 446 kts 339°
2026-04-30 14:39 48.62976 3.15274 36146 ft 446 kts 339°
2026-04-30 14:40 48.71546 3.09767 36144 ft 446 kts 339°
2026-04-30 14:40 48.77266 3.06081 36144 ft 447 kts 339°
2026-04-30 14:41 48.82984 3.02385 36140 ft 446 kts 339°
2026-04-30 14:41 48.88465 2.98201 36148 ft 438 kts 332°
2026-04-30 14:42 48.93714 2.93496 36152 ft 437 kts 331°
2026-04-30 14:42 48.98943 2.88793 36146 ft 436 kts 332°
2026-04-30 14:43 49.04184 2.84148 36150 ft 435 kts 332°
2026-04-30 14:43 49.09406 2.79543 36151 ft 433 kts 332°
2026-04-30 14:44 49.13875 2.75596 36157 ft 432 kts 332°
2026-04-30 14:44 49.19071 2.70994 36152 ft 432 kts 332°
2026-04-30 14:45 49.24263 2.66384 36155 ft 431 kts 332°
2026-04-30 14:45 49.29444 2.61776 36153 ft 431 kts 332°
2026-04-30 14:46 49.34614 2.57166 36153 ft 429 kts 332°
2026-04-30 14:46 49.39768 2.52549 36159 ft 429 kts 332°
2026-04-30 14:47 49.44924 2.47924 36156 ft 429 kts 332°
2026-04-30 14:47 49.50079 2.43302 36152 ft 428 kts 333°
2026-04-30 14:48 49.55578 2.40007 36166 ft 423 kts 346°
2026-04-30 14:48 49.61245 2.37531 36162 ft 424 kts 346°
2026-04-30 14:49 49.65730 2.35565 36164 ft 423 kts 346°
2026-04-30 14:49 49.71389 2.33025 36166 ft 424 kts 346°
2026-04-30 14:50 49.79878 2.29159 36165 ft 424 kts 346°
2026-04-30 14:51 49.88351 2.25270 36170 ft 423 kts 346°
2026-04-30 14:52 49.96825 2.21372 36180 ft 423 kts 346°
2026-04-30 14:52 50.05304 2.17456 36177 ft 425 kts 346°
2026-04-30 14:53 50.13800 2.13519 36173 ft 424 kts 346°
2026-04-30 14:54 50.24519 2.08531 36173 ft 425 kts 346°
2026-04-30 14:55 50.33014 2.04566 36176 ft 425 kts 346°
2026-04-30 14:55 50.38424 2.00844 36173 ft 428 kts 328°
2026-04-30 14:56 50.43033 1.94905 36170 ft 430 kts 320°
2026-04-30 14:57 50.49714 1.85581 36169 ft 430 kts 320°
2026-04-30 14:58 50.58741 1.73183 36170 ft 431 kts 320°
2026-04-30 14:58 50.65518 1.63858 36165 ft 431 kts 320°
2026-04-30 15:00 50.76303 1.48924 36170 ft 431 kts 320°
2026-04-30 15:01 50.85316 1.36390 36187 ft 431 kts 320°
2026-04-30 15:01 50.92070 1.26959 36202 ft 432 kts 319°
2026-04-30 15:02 50.96572 1.20642 36201 ft 432 kts 319°
2026-04-30 15:03 51.07768 1.04831 36214 ft 432 kts 317°
2026-04-30 15:04 51.17340 0.89892 36213 ft 433 kts 316°
2026-04-30 15:06 51.28102 0.73049 36221 ft 434 kts 316°
2026-04-30 15:07 51.36713 0.59531 36221 ft 434 kts 316°
2026-04-30 15:08 51.45316 0.45940 36223 ft 432 kts 315°
2026-04-30 15:08 51.50865 0.37138 36216 ft 414 kts 315°
2026-04-30 15:09 51.54307 0.31659 36211 ft 411 kts 315°
2026-04-30 15:10 51.62397 0.18732 36227 ft 412 kts 315°
2026-04-30 15:11 51.74567 -0.01153 36222 ft 418 kts 314°
2026-04-30 15:13 51.84757 -0.18009 36215 ft 421 kts 313°
2026-04-30 15:14 51.98141 -0.40309 36211 ft 420 kts 313°
2026-04-30 15:17 52.16363 -0.71021 36213 ft 419 kts 312°
2026-04-30 15:18 52.26828 -0.87519 36212 ft 421 kts 328°
2026-04-30 15:19 52.33499 -0.93998 36212 ft 422 kts 329°